EA3CIU-1 Weather Reports


time (UTC)temp
C
wind
direction
speed
KPH
gust
KPH
rain 1hr
cm
rain 24hr
cm
rain mn
cm
humidity
%
barometer
mb
20260506180707 16 170 6.4 12.9 0.00 0.00 0.00 61 1010.0
20260506175706 17 154 8.0 12.9 0.00 0.00 0.00 58 1010.0
20260506175207 17 105 6.4 12.9 0.00 0.00 0.00 57 1010.0
20260506174707 17 136 6.4 12.9 0.00 0.00 0.00 55 1010.0
20260506174205 17 170 6.4 12.9 0.00 0.00 0.00 53 1010.0
20260506173706 17 162 6.4 12.9 0.00 0.00 0.00 51 1010.0
20260506173206 17 180 6.4 12.9 0.00 0.00 0.00 51 1010.0
20260506172706 17 172 4.8 12.9 0.00 0.00 0.00 51 1010.0
20260506171706 17 167 6.4 12.9 0.00 0.00 0.00 50 1010.0
20260506170707 17 129 4.8 12.9 0.00 0.00 0.00 49 1010.0
20260506170208 17 185 9.7 12.9 0.00 0.00 0.00 48 1010.0
20260506165705 18 112 4.8 12.9 0.00 0.00 0.00 47 1009.0
20260506165206 18 140 6.4 12.9 0.00 0.00 0.00 46 1009.0
20260506164706 18 18 6.4 12.9 0.00 0.00 0.00 46 1009.0
20260506164205 18 146 8.0 9.7 0.00 0.00 0.00 45 1009.0
20260506163705 18 139 8.0 12.9 0.00 0.00 0.00 45 1009.0
20260506162706 18 146 8.0 14.5 0.00 0.00 0.00 45 1009.0
20260506161705 18 155 6.4 12.9 0.00 0.00 0.00 45 1009.0
20260506161206 18 157 9.7 19.3 0.00 0.00 0.00 45 1009.0
20260506160708 18 135 9.7 19.3 0.00 0.00 0.00 44
20260506155705 18 197 11.3 16.1 0.00 0.00 0.00 44 1009.0
20260506155206 19 92 8.0 20.9 0.00 0.00 0.00 45
20260506154707 19 180 11.3 20.9 0.00 0.00 0.00 45
20260506153706 19 152 11.3 17.7 0.00 0.00 0.00 45
20260506153206 19 119 11.3 16.1 0.00 0.00 0.00 44
20260506152706 20 160 6.4 19.3 0.00 0.00 0.00 44
20260506152207 19 163 8.0 19.3 0.00 0.00 0.00 44 1009.0
20260506151705 19 106 8.0 19.3 0.00 0.00 0.00 44
20260506151206 20 136 11.3 19.3 0.00 0.00 0.00 44
20260506150706 20 157 8.0 19.3 0.00 0.00 0.00 43
20260506145705 20 154 6.4 16.1 0.00 0.00 0.00 43
20260506145207 20 156 8.0 16.1 0.00 0.00 0.00 43
20260506144206 20 151 9.7 14.5 0.00 0.00 0.00 42
20260506143706 19 160 6.4 14.5 0.00 0.00 0.00 42
20260506143206 19 166 4.8 17.7 0.00 0.00 0.00 42
20260506142705 19 130 6.4 17.7 0.00 0.00 0.00 42
20260506142206 19 138 4.8 17.7 0.00 0.00 0.00 42
20260506141705 19 169 6.4 16.1 0.00 0.00 0.00 42
20260506141206 19 177 8.0 16.1 0.00 0.00 0.00 42
20260506140207 19 153 6.4 14.5 0.00 0.00 0.00 41 1010.0
20260506135706 20 70 8.0 17.7 0.00 0.00 0.00 41 1010.0
20260506134706 20 138 8.0 17.7 0.00 0.00 0.00 40
20260506133705 20 142 6.4 16.1 0.00 0.00 0.00 41
20260506133206 19 166 6.4 16.1 0.00 0.00 0.00 41
20260506132706 20 158 9.7 16.1 0.00 0.00 0.00 39 1010.0
20260506132206 20 164 6.4 12.9 0.00 0.00 0.00 39 1010.0
20260506131206 20 181 8.0 12.9 0.00 0.00 0.00 39 1010.0
20260506130206 19 143 6.4 16.1 0.00 0.00 0.00 41 1010.0
20260506125705 19 143 8.0 16.1 0.00 0.00 0.00 40 1010.0
20260506125206 19 183 8.0 14.5 0.00 0.00 0.00 40 1010.0
20260506124706 19 114 6.4 14.5 0.00 0.00 0.00 40 1010.0
20260506124205 19 176 8.0 9.7 0.00 0.00 0.00 40
20260506123706 20 121 6.4 6.4 0.00 0.00 0.00 39
20260506123206 20 151 3.2 6.4 0.00 0.00 0.00 39 1010.0
20260506122705 20 165 3.2 9.7 0.00 0.00 0.00 39 1010.0
20260506122206 19 159 0.0 9.7 0.00 0.00 0.00 39 1010.0
20260506121706 19 138 0.0 9.7 0.00 0.00 0.00 39 1010.0
20260506120706 20 331 4.8 8.0 0.00 0.00 0.00 40
20260506120207 20 357 0.0 8.0 0.00 0.00 0.00 40 1010.0
20260506115705 20 341 0.0 9.7 0.00 0.00 0.00 39 1010.0
20260506115206 20 336 4.8 9.7 0.00 0.00 0.00 39 1010.0
20260506114706 20 5 6.4 9.7 0.00 0.00 0.00 40 1010.0
20260506114206 20 338 3.2 8.0 0.00 0.00 0.00 40 1010.0
20260506113705 20 72 6.4 8.0 0.00 0.00 0.00 41 1010.0
20260506113206 20 137 0.0 9.7 0.00 0.00 0.00 42 1010.0
20260506112707 20 103 0.0 9.7 0.00 0.00 0.00 42 1011.0
20260506111705 19 115 4.8 9.7 0.00 0.00 0.00 42 1011.0
20260506111205 18 127 4.8 9.7 0.00 0.00 0.00 43 1011.0
20260506110206 19 353 3.2 6.4 0.00 0.00 0.00 43 1011.0
20260506105705 19 128 0.0 8.0 0.00 0.00 0.00 45 1011.0
20260506105206 19 87 0.0 8.0 0.00 0.00 0.00 44 1011.0
20260506104705 18 37 3.2 8.0 0.00 0.00 0.00 45 1011.0
20260506104205 18 331 3.2 8.0 0.00 0.00 0.00 44 1011.0
20260506103705 18 100 6.4 8.0 0.00 0.00 0.00 45 1011.0
20260506102705 18 329 3.2 9.7 0.00 0.00 0.00 46 1011.0
20260506102205 18 38 3.2 9.7 0.00 0.00 0.00 46 1011.0
20260506101206 18 341 6.4 9.7 0.00 0.00 0.00 46 1011.0
20260506100706 18 22 0.0 9.7 0.00 0.00 0.00 47 1011.0
20260506100206 18 350 0.0 9.7 0.00 0.00 0.00 47 1011.0
20260506095706 17 310 0.0 9.7 0.00 0.00 0.00 49 1011.0
20260506095206 18 337 6.4 6.4 0.00 0.00 0.00 49 1011.0
20260506094707 17 294 0.0 9.7 0.00 0.00 0.00 50 1011.0
20260506094206 17 159 0.0 9.7 0.00 0.00 0.00 51 1011.0
20260506093705 17 166 0.0 9.7 0.00 0.00 0.00 52 1011.0
20260506093207 17 284 4.8 9.7 0.00 0.00 0.00 52 1011.0
20260506092706 17 127 3.2 9.7 0.00 0.00 0.00 52
20260506092206 17 159 6.4 8.0 0.00 0.00 0.00 52 1011.0
20260506091705 17 114 0.0 8.0 0.00 0.00 0.00 53 1011.0
20260506091208 17 127 4.8 8.0 0.00 0.00 0.00 54 1011.0
20260506090706 17 154 3.2 6.4 0.00 0.00 0.00 55 1011.0
20260506090207 16 300 3.2 6.4 0.00 0.00 0.00 56 1011.0
20260506085705 16 308 0.0 6.4 0.00 0.00 0.00 55 1011.0
20260506085207 17 147 3.2 6.4 0.00 0.00 0.00 56 1011.0
20260506084706 16 310 0.0 8.0 0.00 0.00 0.00 58 1011.0
20260506084205 16 108 0.0 8.0 0.00 0.00 0.00 58 1011.0
20260506083706 16 269 0.0 8.0 0.00 0.00 0.00 58 1011.0
20260506083207 16 181 6.4 8.0 0.00 0.00 0.00 59 1011.0
20260506082707 16 175 4.8 8.0 0.00 0.00 0.00 60 1011.0
20260506081706 16 168 0.0 6.4 0.00 0.00 0.00 62 1011.0
20260506081206 16 180 4.8 6.4 0.00 0.00 0.00 63 1011.0
20260506080707 16 167 0.0 6.4 0.00 0.00 0.00 62 1011.0
20260506080206 15 175 0.0 6.4 0.00 0.00 0.00 64 1011.0
20260506073208 15 181 0.0 6.4 0.00 0.00 0.00 59 1011.0
20260506072706 15 165 0.0 4.8 0.00 0.00 0.00 62 1011.0
20260506072208 15 129 0.0 4.8 0.00 0.00 0.00 66 1011.0
20260506071705 14 286 0.0 4.8 0.00 0.00 0.00 70 1011.0
20260506071206 14 137 0.0 4.8 0.00 0.00 0.00 70 1011.0
20260506070206 13 318 0.0 6.4 0.00 0.00 0.00 72 1011.0
20260506062208 11 302 0.0 9.7 0.00 0.00 0.00 79 1011.0
20260506061706 11 313 3.2 9.7 0.00 0.00 0.00 80 1011.0
20260506061206 11 310 3.2 6.4 0.00 0.00 0.00 82 1011.0
20260506060706 10 309 0.0 8.0 0.00 0.00 0.00 82 1011.0
20260506060206 10 121 0.0 8.0 0.00 0.00 0.00 81 1011.0
20260506051206 9 321 0.0 0.0 0.00 0.00 0.00 84 1010.0
20260506050705 10 321 0.0 0.0 0.00 0.00 0.00 84 1010.0
20260506050207 10 321 0.0 0.0 0.00 0.00 0.00 84 1010.0
20260506044706 10 321 0.0 4.8 0.00 0.00 0.00 85 1010.0
20260506044206 10 321 0.0 4.8 0.00 0.00 0.00 85 1010.0
20260506043705 10 324 0.0 4.8 0.00 0.00 0.00 85 1010.0
20260506043205 10 324 0.0 0.0 0.00 0.00 0.00 85 1010.0
20260506042706 10 325 0.0 6.4 0.00 0.00 0.00 86 1010.0
20260506042207 10 325 0.0 6.4 0.00 0.00 0.00 86 1010.0
20260506041706 10 325 0.0 3.2 0.00 0.00 0.00 87 1010.0
20260506041206 10 330 0.0 4.8 0.00 0.00 0.00 88 1010.0
20260506040707 10 330 0.0 4.8 0.00 0.00 0.00 88 1010.0
20260506040207 10 328 0.0 4.8 0.00 0.00 0.00 89 1010.0
20260506035706 10 329 0.0 4.8 0.00 0.00 0.00 89 1010.0
20260506034706 9 308 0.0 0.0 0.00 0.00 0.00 90 1010.0
20260506033705 10 294 0.0 6.4 0.00 0.00 0.00 90 1010.0
20260506033205 10 282 0.0 6.4 0.00 0.00 0.00 91 1010.0
20260506032706 10 353 0.0 6.4 0.00 0.00 0.00 91 1009.0
20260506032205 10 301 4.8 6.4 0.00 0.00 0.00 91 1009.0
20260506031706 10 319 0.0 6.4 0.00 0.00 0.00 91 1009.0
20260506031206 10 340 0.0 6.4 0.00 0.00 0.00 91 1010.0
20260506030208 10 320 0.0 0.0 0.00 0.00 0.00 91 1010.0
20260506025206 10 302 0.0 4.8 0.00 0.00 0.00 92 1010.0
20260506024706 10 302 0.0 4.8 0.00 0.00 0.00 92 1010.0
20260506024207 10 302 0.0 0.0 0.00 0.00 0.00 92 1010.0
20260506023705 10 302 0.0 0.0 0.00 0.00 0.00 92 1010.0
20260506023207 10 302 0.0 0.0 0.00 0.00 0.00 92 1010.0
20260506022709 10 302 0.0 0.0 0.00 0.00 0.00 92 1010.0
20260506022206 10 302 0.0 0.0 0.00 0.00 0.00 92 1010.0
20260506021705 10 302 0.0 4.8 0.00 0.00 0.00 92 1010.0
20260506020707 10 302 0.0 4.8 0.00 0.00 0.00 92 1010.0
20260506015206 10 303 0.0 3.2 0.00 0.00 0.00 91 1010.0
20260506014210 10 302 0.0 3.2 0.00 0.00 0.00 90 1010.0
20260506013707 10 302 0.0 3.2 0.00 0.00 0.00 90 1010.0
20260506013208 10 242 0.0 3.2 0.00 0.00 0.00 90 1010.0
20260506012706 10 300 0.0 3.2 0.00 0.00 0.00 90 1010.0
20260506012207 11 300 0.0 3.2 0.00 0.00 0.00 90 1010.0
20260506011209 11 316 0.0 0.0 0.00 0.00 0.00 89 1010.0
20260506010211 11 182 0.0 0.0 0.00 0.00 0.00 90 1010.0
20260506005707 11 181 0.0 0.0 0.00 0.00 0.00 90 1010.0
20260506005208 11 312 0.0 3.2 0.00 0.00 0.00 90 1010.0
20260506004207 11 312 0.0 0.0 0.00 0.00 0.00 90 1010.0
20260506003208 11 328 0.0 0.0 0.00 0.00 0.00 91 1010.0
20260506001708 11 321 0.0 0.0 0.00 0.00 0.00 91 1010.0
20260506001208 11 321 0.0 0.0 0.00 0.00 0.00 91 1010.0
20260506000708 11 321 0.0 0.0 0.00 0.00 0.00 91 1010.0
20260506000208 11 321 0.0 4.8 0.00 0.00 0.00 91 1010.0
20260505235208 11 321 0.0 6.4 0.00 0.00 0.00 91 1010.0
20260505234706 11 318 0.0 6.4 0.00 0.00 0.00 91 1010.0
20260505234208 11 294 0.0 6.4 0.00 0.00 0.00 90 1010.0
20260505233707 11 317 0.0 6.4 0.00 0.00 0.00 91 1010.0
20260505233209 11 290 0.0 6.4 0.00 0.00 0.00 91 1010.0
20260505232706 12 290 0.0 6.4 0.00 0.00 0.00 91 1010.0
20260505232206 12 290 0.0 4.8 0.00 0.00 0.00 91 1010.0
20260505231706 11 298 0.0 4.8 0.00 0.00 0.00 91 1010.0
20260505231206 12 298 0.0 4.8 0.00 0.00 0.00 90 1010.0
20260505230707 12 298 0.0 4.8 0.00 0.00 0.00 88 1010.0
20260505225209 12 294 0.0 0.0 0.00 0.00 0.00 85 1010.0
20260505224707 12 294 0.0 0.0 0.00 0.00 0.00 85 1010.0
20260505224209 12 128 0.0 4.8 0.00 0.00 0.00 84 1010.0
20260505223208 12 128 0.0 8.0 0.00 0.00 0.00 83 1010.0
20260505222706 12 128 0.0 8.0 0.00 0.00 0.00 82 1010.0
20260505222206 12 304 0.0 8.0 0.00 0.00 0.00 81 1010.0
20260505221707 13 313 0.0 8.0 0.00 0.00 0.00 80 1010.0
20260505221207 13 309 4.8 8.0 0.00 0.00 0.00 80 1010.0
20260505220706 13 316 0.0 8.0 0.00 0.00 0.00 80 1010.0
20260505215706 13 281 6.4 11.3 0.00 0.00 0.00 79 1011.0
20260505215208 13 310 0.0 11.3 0.00 0.00 0.00 79 1011.0
20260505214706 13 324 0.0 11.3 0.00 0.00 0.00 79 1011.0
20260505214206 12 328 0.0 9.7 0.00 0.00 0.00 81 1010.0
20260505213707 12 318 4.8 9.7 0.00 0.00 0.00 81 1010.0
20260505213205 13 306 0.0 6.4 0.00 0.00 0.00 78 1010.0
20260505212706 13 328 0.0 6.4 0.00 0.00 0.00 78 1010.0
20260505212206 13 310 0.0 6.4 0.00 0.00 0.00 79 1010.0
20260505211705 13 336 4.8 4.8 0.00 0.00 0.00 80 1010.0
20260505211206 13 353 0.0 4.8 0.00 0.00 0.00 84 1010.0
20260505210705 13 341 0.0 4.8 0.00 0.00 0.00 85 1010.0
20260505210206 13 341 0.0 0.0 0.00 0.00 0.00 85 1010.0
20260505205705 13 341 0.0 4.8 0.00 0.00 0.00 85 1010.0
20260505205208 13 341 0.0 4.8 0.00 0.00 0.00 84 1010.0
20260505204706 13 343 0.0 0.0 0.00 0.00 0.00 84 1010.0
20260505203707 13 334 0.0 0.0 0.00 0.00 0.00 84 1010.0
20260505203205 13 334 0.0 0.0 0.00 0.00 0.00 83 1010.0
20260505202705 13 334 0.0 0.0 0.00 0.00 0.00 83 1010.0
20260505202206 13 334 0.0 0.0 0.00 0.00 0.00 83 1010.0
20260505200707 13 311 0.0 0.0 0.00 0.00 0.00 83 1010.0
20260505200206 13 311 0.0 4.8 0.00 0.00 0.00 83 1010.0
20260505195706 12 311 0.0 6.4 0.00 0.00 0.00 83 1009.0
20260505194706 12 311 3.2 6.4 0.00 0.00 0.00 83 1009.0
20260505194206 12 306 4.8 6.4 0.00 0.00 0.00 83 1009.0
20260505193707 13 304 0.0 8.0 0.00 0.00 0.00 84 1009.0
20260505193207 13 319 3.2 8.0 0.00 0.00 0.00 84 1009.0
20260505192705 12 307 4.8 8.0 0.00 0.00 0.00 83 1009.0
20260505192207 12 337 6.4 12.9 0.00 0.00 0.00 83 1009.0
20260505191706 13 312 4.8 12.9 0.00 0.00 0.00 83 1009.0
20260505191206 13 338 0.0 12.9 0.00 0.00 0.00 83 1009.0
20260505190707 13 319 8.0 12.9 0.00 0.00 0.00 85 1009.0
20260505190208 12 313 9.7 12.9 0.00 0.00 0.00 90 1009.0
20260505185205 13 324 6.4 9.7 0.00 0.00 0.00 92 1009.0
20260505184207 13 295 3.2 8.0 0.00 0.00 0.00 93 1009.0
20260505183209 13 315 4.8 6.4 0.00 0.00 0.00 92 1009.0
20260505182706 13 306 0.0 4.8 0.00 0.00 0.00 92 1009.0
20260505182207 13 320 0.0 4.8 0.00 0.00 0.00 92 1009.0
20260505181206 13 308 0.0 0.0 0.00 0.00 0.00 91 1009.0